Aérodrome :
LOGIN :

S'inscrire | Disclaimer

   EN    FR    IT 

 










Légende :    VFR   VFR Marginal   IFR   IFR Intensif   IFR Très Intensif
Visi : 
Plafond : 
>= 8 km
>= 3000ft
5 à 8 km
1000 à 3000 ft
1500m à 5 km
500 à 1000 ft
800 à 1500m
200 à 500 ft
< 800m
< 200 ft
Symboles :   Orages  Brouillard  Fortes neiges  Fortes précipitations  Vent > 20 kt
SIGMETs :   Divers  Orages  Givrage  Turbulence  Onde Orograph.  Cendres Volcan.







- Altitude de l'aérodrome : 15 ft
- Code IATA : BHD
- Voir les cartes d'approche


EGAC - George Best Belfast City

DERNIER METAR :
  • 241220Z 25010KT 9999 FEW011 SCT023 04/02 Q1009

METARs EXPIRÉS :
  • 241150Z 23008KT 200V270 9999 FEW011 SCT017 04/02 Q1009
  • 241120Z 21010KT 9999 FEW012 SCT016 03/02 Q1009
  • 241050Z 21009KT 9999 FEW010 SCT030 04/02 Q1009
  • 241020Z 24006KT 210V280 9999 FEW011 SCT030 03/02 Q1009
  • 240950Z 19009KT 9999 FEW013 SCT028 02/01 Q1008

TAF TAF EGAC
Valide du 24 à 12h jusqu'au 24 à 21h UTC


241111Z 2412/2421 24006KT 9999 FEW014 SCT035
TEMPO 2412/2421 5000 SHRASN SHGS BKN012
PROB30
TEMPO 2419/2421 1400 SHSN BKN005
ATIS : +44 02890 935 124
Pas de NOTAMs connus pour ce terrain.



MET'MAP, la Météo Aéronautique d'un coup d'oeil ! - Copyright ORBIFLY Décembre 2007 - Disclaimer

ORBIFLY MET'MAP TEAM :

Programmation & Développement : Alexandra Zaïnal
Conception & Développement : Baudouin d'Aumeries
Co-Programmation & Développement : Marc-Olivier Méhu
Soutien technique & logistique : Manuel Goepfert

Contact : metmap@orbifly.com




SOURCES & CREDITS :

   NOAA